Location: Bothwell
(42.3833°S, 147.0000°E)
Time: 22:19:22
(UTC+11:00)

RS-44 - Pass Details

Date: 25 September 2022
Orbit: 1175 x 1510 km, 82.5° (Epoch: 29 November)

Event Time Altitude Azimuth Distance (km) Brightness Sun altitude
Exits shadow 00:39:52 31° 218° (SW) 2,406 ? -46.2°
Drops below altitude 10° 00:45:21 10° 185° (S) 3,689 ? -46.0°
Sets 00:48:42 0° 176° (S) 4,686 ? -45.8°
